Weather Roundup
Issued by NWS Corpus Christi, TX

Home | Current Version | Previous Version | Text Only | Print | Product List | Glossary On
Versions: 1 2 3 4 5 6 7 8 9 10 11 12 13 14 15 16 17 18 19 20 21 22 23 24 25 26 27 28 29 30 31 32 33 34 35 36 37 38 39 40 41 42 43 44 45 46 47 48 49 50
000
ASUS44 KCRP 240910
HRRCRP

SOUTH TEXAS REGIONAL WEATHER ROUNDUP
NATIONAL WEATHER SERVICE CORPUS CHRISTI TX
300 AM CST FRI FEB 24 2017


TXZ229>244-241000-
...CORPUS CHRISTI AREA OBSERVATIONS...

CITY           SKY/WX    TMP DP  RH WIND       PRES   REMARKS
CORPUS CHRISTI CLEAR     68  66  93 S16       29.62F
NAS CORPUS CHR CLEAR     69  69 100 S20G26    29.62F
ROCKPORT       CLEAR     70  66  87 S8G17     29.63F
KINGSVILLE NAS PTCLDY    68  68 100 SE13      29.61F
ALICE          PTCLDY    65  65 100 SE8       29.61F
ORANGE GROVE   FOG       61  61 100 S5        29.63F VSB 1/4
FALFURRIAS     PTCLDY    66  65  96 SE6       29.61F
$$

...VICTORIA AREA OBSERVATIONS...

CITY           SKY/WX    TMP DP  RH WIND       PRES   REMARKS
VICTORIA       CLEAR     68  66  93 S10       29.64F
BEEVILLE       FAIR      66  66 100 S10       29.63F
PLEASANTON     CLEAR     60  60 100 CALM      29.64S FOG
SAN ANTONIO    PTCLDY    60  58  92 NW14      29.69R
$$

...LAREDO AREA OBSERVATIONS...

CITY           SKY/WX    TMP DP  RH WIND       PRES   REMARKS
LAREDO         CLEAR     66  57  72 SE8       29.61S
COTULLA        CLEAR     63  57  81 E3        29.61F
DEL RIO        PTCLDY    60  44  55 NW3       29.67R
MCALLEN        PTCLDY    70  67  90 SE13      29.62F
HEBBRONVILLE   FOG       64  62  96 S10G17    29.62F VSB 1/2
$$

...OTHER TEXAS OBSERVATIONS...

CITY           SKY/WX    TMP DP  RH WIND       PRES   REMARKS
BROWNSVILLE    PTCLDY    70  67  90 SE12      29.64F
HOUSTON        PTCLDY    66  63  90 S8        29.67S
COL. STATION   CLOUDY    64  62  93 NW14      29.69R
AUSTIN         MOCLDY    67  63  87 W6        29.69R
WACO           CLEAR     61  58  90 S10       29.62F
FORT WORTH     PTCLDY    63  57  81 SW7       29.56F
WICHITA FALLS  CLEAR     46  37  71 N21       29.68R
LUBBOCK        CLEAR     42  21  43 N13       29.75R
EL PASO        CLEAR     55   2  11 W17G31    29.87R
$$

...MARINE OBSERVATIONS...

STATION/POSITION TIME  SKY/WX   TEMP    WIND        PRES    VSBY  WAVE   SWELL
                                AIR SEA DIR/SP/G                  HT/PER HT/PER
                 (UTC)          (F)     (DEG/KT/KT) (MB)    (MI)  (FT/S) (FT/S)
PORT ARANSAS     0800            70 71  170/ 14/ 16 1004.0F
BUOY 90 E PORT A 0850            71 69  150/ 25/ 29 1003.8F         6/ 6
BUOY 45 SE BAFFI 0850            74     160/ 21/ 23 1003.1F         5/ 6
BUOY 200 E PT IS 0850            73 73  140/ 19/ 23 1005.6F         4/ 5
BUOY 15 E GALVES 0850            67 65  170/ 16/ 17 1004.7R         4/ 5
$$




USA.gov is the U.S. government's official web portal to all federal, state and local government web resources and services.